Location: Colfax Spring
(37.8208°N, 120.0277°W)
Time: 23:03:46
(UTC+00:00)

DMSP B5D2-2 - Visible Passes

Search period start: 13 September 2024 00:00
Search period end: 23 September 2024 00:00
Orbit: 787 x 802 km, 98.3° (Epoch: 12 September)

Date Brightness Start Highest point End Pass type
(mag) Time Alt. Az. Time Alt. Az. Time Alt. Az.
13 Sep 6.5 10:30:35 10° ESE 10:34:12 19° ENE 10:37:48 10° NNE visible
13 Sep 4.2 12:08:21 10° S 12:13:23 49° W 12:18:26 10° NNW visible
14 Sep 7.1 10:05:31 10° ENE 10:06:25 10° ENE 10:07:19 10° NE visible
14 Sep 4.0 11:39:58 10° SSE 11:45:11 88° ENE 11:50:26 10° NNW visible
15 Sep 5.0 11:12:08 10° SE 11:17:06 47° ENE 11:22:06 10° N visible
15 Sep 5.3 12:53:19 10° SW 12:56:55 19° W 13:00:32 10° NW visible
16 Sep 6.0 10:44:52 10° ESE 10:49:07 26° ENE 10:53:25 10° NNE visible
16 Sep 4.6 12:23:50 10° SSW 12:28:32 35° W 12:33:18 10° NNW visible
17 Sep 6.8 10:18:27 10° E 10:21:17 15° ENE 10:24:07 10° NNE visible
17 Sep 3.9 11:55:07 10° S 12:00:17 66° WSW 12:05:30 10° NNW visible
18 Sep 4.3 11:26:58 10° SSE 11:32:07 67° ENE 11:37:19 10° N visible
18 Sep 5.7 13:09:49 10° WSW 13:12:10 13° W 13:14:32 10° WNW visible
19 Sep 5.5 10:59:21 10° SE 11:04:04 36° ENE 11:08:50 10° N visible
19 Sep 5.0 12:39:30 10° SSW 12:43:43 25° W 12:47:59 10° NW visible
20 Sep 6.4 10:32:24 10° ESE 10:36:09 20° ENE 10:39:55 10° NNE visible
20 Sep 4.2 12:10:23 10° S 12:15:23 46° W 12:20:25 10° NNW visible
21 Sep 7.0 10:06:51 10° ENE 10:08:21 11° ENE 10:09:51 10° NE visible
21 Sep 3.9 11:41:56 10° SSE 11:47:09 87° W 11:52:25 10° NNW visible
22 Sep 4.8 11:14:01 10° SSE 11:19:02 51° ENE 11:24:06 10° N visible
22 Sep 5.4 12:55:27 10° SW 12:58:53 18° W 13:02:22 10° NW visible
